Canby, MN

5:05 PM CDT on April 23, 2017 (GMT -0500)
Canby

Weather History for KCNB - November, 2012

Change the Weather History Date:

Monday, November 12, 2012

  Actual Average (KMML) Record (KMML)
Temperature  
Mean Temperature 23 °F -  
Max Temperature 28 °F 41 °F 69 °F (2001)
Min Temperature 18 °F 22 °F -5 °F (1966)
Degree Days  
Heating Degree Days 42    
Moisture  
Dew Point 15 °F    
Average Humidity 71    
Maximum Humidity 83    
Minimum Humidity 57    
Precipitation  
Precipitation 0.00 in - - ()
Sea Level Pressure  
Sea Level Pressure 30.12 in    
Wind  
Wind Speed 17 mph (West)    
Max Wind Speed 24 mph    
Max Gust Speed 31 mph    
Visibility 10 miles    
Events Snow    
Averages and records for this station are not official NWS values.
T = Trace of Precipitation, MM = Missing Value Source: NWS Daily Summary

Daily Weather History Graph

Daily Weather History Graph

Search for Another Location

Airport or City:

Trip Planner

Search our weather history database for the weather conditions in past years. The results will help you decide how hot, cold, wet, or windy it might be!

Date:

Astronomy

Nov. 12, 2012 Rise Set
Actual Time 7:18 AM CST 4:59 PM CST
Civil Twilight 6:47 AM CST 5:30 PM CST
Nautical Twilight 6:11 AM CST 6:05 PM CST
Astronomical Twilight 5:37 AM CST 6:40 PM CST
Moon 5:43 AM CST (11/12) 4:06 PM CST (11/12)
Length of Visible Light 10h 43m
Length of Day
9h 40m
Waning Crescent, 2% of the Moon is Illuminated
Nov 12
Waning Crescent
Nov 13
New
Nov 20
First Quarter
Nov 28
Full
Dec 6
Last Quarter

Hourly Weather History & Observations

Time (CST) Temp. Windchill Dew Point Humidity Pressure Visibility Wind Dir Wind Speed Gust Speed Precip Events Conditions
12:55 AM 19.8 °F 4.5 °F 14.4 °F 80% 29.96 in 10.0 mi West 18.4 mph 21.9 mph N/A   Scattered Clouds
1:15 AM 19.4 °F 6.0 °F 14.5 °F 81% 29.96 in 10.0 mi West 13.8 mph - N/A   Scattered Clouds
1:55 AM 20.8 °F 7.9 °F 15.8 °F 81% 29.96 in 10.0 mi West 13.8 mph 20.7 mph N/A   Overcast
2:14 AM 21.4 °F 8.0 °F 15.4 °F 78% 29.96 in 10.0 mi West 15.0 mph 21.9 mph N/A   Overcast
2:35 AM 21.7 °F 8.0 °F 15.8 °F 78% 29.96 in 10.0 mi West 16.1 mph 25.3 mph N/A   Overcast
3:14 AM 21.6 °F 6.5 °F 14.9 °F 76% 29.96 in 10.0 mi West 19.6 mph 24.2 mph N/A   Overcast
3:35 AM 21.2 °F 6.8 °F 15.6 °F 79% 29.96 in 10.0 mi West 17.3 mph 20.7 mph N/A   Overcast
3:55 AM 21.2 °F 6.4 °F 15.8 °F 80% 29.96 in 10.0 mi West 18.4 mph - N/A Snow Light Snow
4:15 AM 21.2 °F 6.8 °F 15.6 °F 79% 29.97 in 10.0 mi West 17.3 mph - N/A   Overcast
4:34 AM 21.2 °F 7.3 °F 15.1 °F 77% 29.97 in 10.0 mi West 16.1 mph 27.6 mph N/A   Overcast
4:55 AM 21.2 °F 6.0 °F 16.5 °F 82% 29.98 in 7.0 mi West 19.6 mph 25.3 mph N/A Snow Light Snow
5:15 AM 21.0 °F 5.7 °F 16.7 °F 83% 29.99 in 4.0 mi West 19.6 mph 24.2 mph N/A Snow Light Snow
5:35 AM 21.0 °F 5.0 °F 15.1 °F 78% 29.99 in 10.0 mi West 21.9 mph 27.6 mph N/A   Overcast
6:15 AM 20.3 °F 5.2 °F 14.4 °F 78% 30.00 in 10.0 mi West 18.4 mph 26.5 mph N/A   Mostly Cloudy
6:34 AM 20.3 °F 4.8 °F 14.4 °F 78% 30.00 in 10.0 mi West 19.6 mph 26.5 mph N/A   Scattered Clouds
6:55 AM 19.4 °F 4.5 °F 13.8 °F 79% 30.01 in 10.0 mi West 17.3 mph 23.0 mph N/A   Clear
7:15 AM 19.0 °F 5.0 °F 13.8 °F 80% 30.02 in 10.0 mi West 15.0 mph 25.3 mph N/A   Clear
7:35 AM 18.5 °F 3.8 °F 13.1 °F 79% 30.02 in 10.0 mi West 16.1 mph - N/A   Clear
7:54 AM 18.5 °F 2.9 °F 12.9 °F 79% 30.03 in 10.0 mi West 18.4 mph - N/A   Clear
8:15 AM 18.9 °F 4.3 °F 12.9 °F 78% 30.04 in 10.0 mi West 16.1 mph 24.2 mph N/A   Clear
8:35 AM 19.0 °F 2.0 °F 12.4 °F 75% 30.06 in 10.0 mi West 23.0 mph 28.8 mph N/A   Clear
8:55 AM 19.2 °F 3.4 °F 12.2 °F 74% 30.06 in 10.0 mi West 19.6 mph 27.6 mph N/A   Clear
9:15 AM 19.4 °F 2.8 °F 11.8 °F 72% 30.07 in 10.0 mi West 21.9 mph 27.6 mph N/A   Clear
9:35 AM 20.3 °F 5.2 °F 12.0 °F 70% 30.07 in 10.0 mi WNW 18.4 mph 27.6 mph N/A   Clear
9:54 AM 20.3 °F 5.7 °F 11.7 °F 69% 30.08 in 10.0 mi WNW 17.3 mph 27.6 mph N/A   Clear
10:15 AM 21.6 °F 5.0 °F 12.2 °F 67% 30.10 in 10.0 mi West 24.2 mph 31.1 mph N/A   Clear
10:35 AM 22.3 °F 6.6 °F 12.6 °F 66% 30.11 in 10.0 mi West 21.9 mph 26.5 mph N/A   Clear
10:55 AM 22.8 °F 7.4 °F 12.7 °F 65% 30.11 in 10.0 mi WNW 21.9 mph 27.6 mph N/A   Clear
11:15 AM 22.8 °F 8.1 °F 12.6 °F 65% 30.12 in 10.0 mi WNW 19.6 mph 25.3 mph N/A   Clear
11:35 AM 23.7 °F 8.5 °F 13.3 °F 64% 30.12 in 10.0 mi West 21.9 mph 27.6 mph N/A   Clear
11:54 AM 23.9 °F 9.5 °F 12.9 °F 63% 30.12 in 10.0 mi West 19.6 mph 25.3 mph N/A   Clear
12:35 PM 25.5 °F 11.6 °F 14.0 °F 62% 30.12 in 10.0 mi WNW 19.6 mph 26.5 mph N/A   Clear
12:55 PM 25.3 °F 10.3 °F 13.6 °F 61% 30.13 in 10.0 mi WNW 23.0 mph 27.6 mph N/A   Scattered Clouds
1:15 PM 26.2 °F 11.2 °F 14.5 °F 61% 30.14 in 10.0 mi WNW 24.2 mph 28.8 mph N/A   Scattered Clouds
1:35 PM 27.0 °F 13.9 °F 15.4 °F 62% 30.14 in 10.0 mi WNW 18.4 mph 27.6 mph N/A   Scattered Clouds
1:54 PM 27.5 °F 14.2 °F 15.4 °F 61% 30.14 in 10.0 mi WNW 19.6 mph 24.2 mph N/A   Scattered Clouds
2:15 PM 27.5 °F 13.5 °F 15.4 °F 61% 30.16 in 10.0 mi West 21.9 mph 27.6 mph N/A   Scattered Clouds
2:35 PM 28.0 °F 14.9 °F 15.4 °F 59% 30.16 in 10.0 mi WNW 19.6 mph 31.1 mph N/A   Scattered Clouds
2:55 PM 28.2 °F 15.2 °F 15.6 °F 59% 30.16 in 10.0 mi WNW 19.6 mph 27.6 mph N/A   Clear
3:15 PM 28.6 °F 16.4 °F 15.1 °F 57% 30.17 in 10.0 mi West 17.3 mph 23.0 mph N/A   Clear
3:35 PM 28.6 °F 16.0 °F 15.1 °F 57% 30.18 in 10.0 mi West 18.4 mph 23.0 mph N/A   Clear
3:54 PM 28.4 °F 16.2 °F 14.7 °F 57% 30.18 in 10.0 mi West 17.3 mph - N/A   Clear
4:15 PM 28.0 °F 16.5 °F 14.4 °F 57% 30.19 in 10.0 mi West 15.0 mph 20.7 mph N/A   Clear
4:34 PM 27.3 °F 16.1 °F 14.0 °F 57% 30.20 in 10.0 mi West 13.8 mph - N/A   Clear
4:55 PM 26.4 °F 15.0 °F 14.0 °F 59% 30.20 in 10.0 mi West 13.8 mph - N/A   Clear
5:15 PM 25.5 °F 14.9 °F 14.0 °F 62% 30.21 in 10.0 mi West 11.5 mph - N/A   Clear
5:35 PM 24.8 °F 14.0 °F 14.0 °F 64% 30.21 in 10.0 mi West 11.5 mph - N/A   Clear
5:55 PM 24.8 °F 13.4 °F 14.5 °F 65% 30.22 in 10.0 mi West 12.7 mph - N/A   Clear
6:14 PM 24.6 °F 12.2 °F 14.2 °F 65% 30.23 in 10.0 mi West 15.0 mph 18.4 mph N/A   Clear
6:55 PM 24.4 °F 14.2 °F 14.5 °F 66% 30.24 in 10.0 mi West 10.4 mph - N/A   Clear
7:15 PM 23.9 °F 14.2 °F 15.1 °F 69% 30.24 in 10.0 mi WSW 9.2 mph - N/A   Clear
7:35 PM 23.4 °F 14.3 °F 15.4 °F 72% 30.25 in 10.0 mi WSW 8.1 mph - N/A   Clear
7:54 PM 23.9 °F 14.2 °F 14.9 °F 69% 30.25 in 10.0 mi WSW 9.2 mph - N/A   Clear
8:15 PM 23.9 °F 15.0 °F 15.1 °F 69% 30.24 in 10.0 mi SW 8.1 mph - N/A   Clear
8:35 PM 23.0 °F 13.9 °F 15.3 °F 72% 30.24 in 10.0 mi WSW 8.1 mph - N/A   Clear
8:54 PM 23.4 °F 13.5 °F 15.6 °F 72% 30.25 in 10.0 mi WSW 9.2 mph - N/A   Clear
9:15 PM 23.4 °F 12.8 °F 15.8 °F 73% 30.26 in 10.0 mi WSW 10.4 mph - N/A   Clear
9:35 PM 23.0 °F 13.9 °F 15.8 °F 74% 30.26 in 10.0 mi WSW 8.1 mph - N/A   Clear
9:55 PM 23.2 °F 13.3 °F 16.5 °F 76% 30.26 in 10.0 mi WSW 9.2 mph - N/A   Clear
10:15 PM 23.9 °F 18.0 °F 16.7 °F 74% 30.26 in 10.0 mi WSW 4.6 mph - N/A   Clear
10:34 PM 23.9 °F 15.0 °F 16.7 °F 74% 30.27 in 10.0 mi SSW 8.1 mph - N/A   Clear
10:55 PM 23.9 °F 14.2 °F 16.7 °F 74% 30.27 in 10.0 mi WSW 9.2 mph - N/A   Clear
11:15 PM 23.2 °F 15.0 °F 17.1 °F 77% 30.27 in 10.0 mi WSW 6.9 mph - N/A   Clear
11:35 PM 23.4 °F 14.3 °F 17.4 °F 78% 30.26 in 10.0 mi SW 8.1 mph - N/A   Clear
11:55 PM 23.5 °F 13.7 °F 17.1 °F 76% 30.26 in 10.0 mi WSW 9.2 mph - N/A   Clear